Terminal Aerodrome Forecast
Issued by NWS

Home | Current Version | Previous Version | Text Only | Print | Product List | Glossary Off
Versions: 1 2 3 4 5 6 7 8 9 10 11 12 13 14 15 16 17 18

000
FTUS43 KUNR 250605 AAA
TAFGCC
TAF AMD
KGCC 250605Z 2506/2606 08010KT P6SM -SHRA OVC009
     FM250900 06012KT P6SM -SNRA OVC009
     FM251200 04015G26KT 3/4SM -SN OVC003
     FM251700 03016G24KT 2SM -SN OVC003=

USA.gov is the U.S. government's official web portal to all federal, state and local government web resources and services.